Find INTELSAT 506

NORAD ID: 14077 Int'l Des: 1983-047 Owner: INTEL Country: I-INT operational
HEOCIRCULAR

リアルタイム位置

3D地球を読み込み中...

INTELSAT 506について

説明を読み込み中...

次回通過

Passes for default location (London). Set your location on the main map for personalized predictions.

高度履歴

Loading altitude history...

軌道要素

1 14077U 83047A 26121.07291071 .00000017 00000-0 00000+0 0 9997
2 14077 12.5104 333.9503 0039060 356.0912 353.8505 0.99156767123616
Epoch: May 1, 2026 • Age: 10 hours

現在のステータス

高度 36243.6 km
速度 3.05 km/s
衛星直下点 6.94°N, 77.76°E
打ち上げ日 May 19, 1983
運用期間 42.9 years
タイプ communications

技術仕様

分類 Payload
質量 1004.00 kg
乾燥質量 775.00 kg
総質量 1928.00 kg
長さ 6.40 m
直径 2.00 m
スパン 15.60 m
形状 Box + 2 Pan
製造者 FORDA
バスタイプ FS INTELSAT 5
フェーズステータス Renamed
所有者/国 INTEL/I-INT

Most Searched